Date,TemperatureHighF,TemperatureAvgF,TemperatureLowF,DewpointHighF,DewpointAvgF,DewpointLowF,HumidityHigh,HumidityAvg,HumidityLow,PressureMaxIn,PressureMinIn,WindSpeedMaxMPH,WindSpeedAvgMPH,GustSpeedMaxMPH,PrecipitationSumIn
2013-1-1,32.9,22.5,10.9,13.1,4.6,-4.6,56,46,32,30.09,29.94,11,2,11,0.00
2013-1-2,26.6,17.3,6.6,10.4,3.9,-6.1,76,55,46,30.12,30.00,9,0,9,0.00
2013-1-3,28.6,21.3,10.4,19.8,8.4,-3.8,71,57,45,30.16,30.00,8,1,10,0.00
2013-1-4,29.1,24.8,19.2,17.2,11.0,6.5,68,56,42,30.19,30.07,10,2,10,0.00
2013-1-5,36.9,27.0,16.2,30.1,16.6,10.2,89,67,40,30.27,30.04,8,1,8,0.00
2013-1-6,36.9,33.7,31.6,29.0,24.2,17.6,85,68,56,30.27,29.92,11,1,14,0.00
2013-1-7,38.5,31.6,27.7,18.2,16.4,13.2,60,53,42,30.39,30.16,10,2,13,0.00
2013-1-8,40.5,30.8,23.5,21.7,17.3,14.1,72,58,40,30.24,30.16,8,0,8,0.00
2013-1-9,45.5,38.7,30.7,25.9,21.0,13.3,71,50,33,30.45,30.04,12,2,12,0.00
2013-1-10,40.1,32.6,23.9,30.0,20.7,15.2,80,62,45,30.54,30.16,9,2,9,0.00
2013-1-11,57.9,46.1,35.4,53.6,41.7,30.2,100,85,64,30.16,29.80,9,2,9,0.55
2013-1-12,59.4,52.4,49.3,51.5,45.3,41.1,97,77,56,29.98,29.83,8,2,9,0.04
2013-1-13,51.6,40.7,32.2,51.6,38.5,26.4,100,92,79,30.04,29.74,12,2,12,0.83
2013-1-14,32.2,25.4,18.5,26.7,10.9,7.5,80,54,44,30.42,30.07,0,0,0,0.00
2013-1-15,32.0,22.9,14.0,18.8,10.0,7.6,79,59,39,30.42,30.13,0,0,0,0.00
2013-1-16,37.6,29.4,21.2,19.6,13.5,9.6,75,53,33,30.13,29.86,11,1,11,0.00
2013-1-17,41.5,31.4,19.9,25.7,13.2,-0.8,75,48,32,30.30,29.98,15,3,15,0.00
2013-1-18,35.2,27.2,16.7,14.5,6.9,0.1,50,42,35,30.42,30.01,3,3,3,0.00
2013-1-19,49.5,40.9,34.0,26.0,19.5,14.5,55,42,31,30.01,29.65,3,3,3,0.00
2013-1-20,41.7,26.3,18.7,25.9,4.5,-3.1,56,39,30,30.19,29.62,6,1,8,0.00
2013-1-21,21.0,15.3,6.1,4.7,-1.3,-7.4,55,47,37,30.13,29.95,11,3,12,0.00
2013-1-22,13.3,5.7,-1.7,-0.7,-7.7,-14.6,53,53,53,30.27,30.10,10,1,10,0.00
2013-1-23,19.8,11.7,3.0,4.6,-3.8,-10.4,62,50,38,30.27,30.07,0,0,0,0.00
2013-1-24,27.5,14.6,7.0,3.8,-3.2,-10.9,62,46,30,30.54,30.07,7,0,8,0.00
2013-1-25,23.2,18.5,13.6,13.8,4.4,-7.9,76,54,37,30.48,30.01,6,3,6,0.00
2013-1-26,34.3,23.6,16.9,15.9,9.5,4.0,79,56,32,30.42,30.04,5,5,5,0.00
2013-1-27,30.9,22.0,9.7,23.5,9.3,-0.5,84,59,36,30.45,30.13,5,5,5,0.00
2013-1-28,47.3,39.2,30.4,47.3,38.6,23.1,100,97,73,30.13,29.89,9,1,9,0.28
2013-1-29,58.5,49.1,36.7,57.2,47.4,36.7,100,95,76,30.04,29.54,10,3,12,0.67
2013-1-30,63.9,51.5,33.1,52.9,46.1,18.0,100,82,54,29.51,29.18,21,3,22,0.43
2013-1-31,33.1,23.3,16.7,18.7,7.5,0.3,73,51,38,29.89,29.33,17,5,20,0.00
2013-2-1,22.1,15.6,12.0,5.1,0.3,-4.3,62,50,37,30.27,29.89,10,10,10,0.00
2013-2-2,25.5,18.3,8.4,14.6,6.4,-5.0,73,59,49,30.22,29.92,10,10,10,0.00
2013-2-3,25.9,14.5,1.6,10.9,-0.1,-11.2,65,52,40,30.01,29.83,10,5,10,0.00
2013-2-4,26.8,20.8,17.1,13.0,10.1,4.3,75,63,50,30.01,29.86,3,3,3,0.00
2013-2-5,33.4,24.0,18.1,23.4,13.9,8.4,84,67,37,29.95,29.83,3,3,3,0.00
2013-2-6,37.4,24.8,10.0,23.7,7.6,-1.7,84,49,32,30.30,29.95,5,2,5,0.04
2013-2-7,41.0,30.6,23.7,25.3,17.0,8.6,78,57,42,30.27,29.86,9,2,9,0.04
2013-2-8,32.2,27.9,15.8,29.8,18.3,6.4,92,68,50,30.33,29.77,6,0,8,0.04
2013-2-9,34.7,21.6,9.1,22.8,10.6,2.7,82,64,36,30.42,30.27,0,0,0,0.04
2013-2-10,44.6,31.5,18.7,35.3,20.9,12.9,87,66,43,30.27,29.71,0,0,0,0.04
2013-2-11,46.4,38.4,32.2,42.6,25.0,15.8,87,60,46,29.92,29.59,17,2,17,0.00
2013-2-12,35.1,31.9,29.1,17.8,15.7,13.5,56,51,44,30.07,29.92,12,1,17,0.00
2013-2-13,39.4,30.8,26.8,20.8,15.7,12.8,71,54,39,29.95,29.77,8,1,8,0.00
2013-2-14,41.7,35.5,28.8,32.0,24.6,17.5,77,65,49,29.89,29.71,13,2,17,0.00
2013-2-15,34.5,30.0,22.8,22.2,10.9,4.0,65,45,33,30.13,29.89,13,3,14,0.00
2013-2-16,31.6,22.0,15.3,14.5,6.8,0.9,64,52,36,30.10,29.98,13,2,13,0.00
2013-2-17,27.5,18.0,9.3,4.9,1.4,-2.6,66,50,30,30.19,30.04,2,2,2,0.00
2013-2-18,48.6,33.9,16.7,26.1,12.7,0.9,52,42,30,30.19,29.65,2,2,2,0.00
2013-2-19,47.7,28.8,18.7,39.7,15.9,2.4,86,59,42,29.95,29.48,14,2,19,0.08
2013-2-20,23.7,20.8,16.7,8.6,3.5,-1.1,62,47,36,30.22,29.95,15,2,15,0.00
2013-2-21,27.5,23.1,21.2,10.7,7.3,5.2,60,50,41,30.36,30.22,8,4,11,0.00
2013-2-22,34.7,28.9,22.3,34.0,22.3,10.7,97,76,60,30.24,29.89,8,2,11,0.00
2013-2-23,37.9,31.3,26.4,29.4,15.0,9.7,83,52,35,29.98,29.89,8,1,10,0.00
2013-2-24,41.4,29.9,19.9,20.6,15.0,8.5,67,54,35,30.16,29.92,10,0,11,0.08
2013-2-25,42.3,30.9,19.6,31.6,16.0,12.0,84,57,32,30.22,30.07,8,1,8,0.00
2013-2-26,34.5,31.8,27.9,34.3,23.7,14.5,100,73,50,30.13,29.48,14,2,14,0.55
2013-2-27,37.8,34.6,32.9,35.6,32.6,27.0,100,93,66,29.59,29.45,8,0,8,0.63
2013-2-28,41.5,34.8,31.1,36.8,26.5,18.2,97,74,44,29.95,29.57,14,2,17,0.28
2013-3-1,31.1,28.2,25.3,18.6,12.8,9.5,59,52,44,30.10,29.95,14,3,14,0.00
2013-3-2,29.7,26.2,24.1,13.8,10.2,7.2,59,51,45,30.07,30.01,11,3,11,0.00
2013-3-3,34.9,25.9,18.5,9.2,6.4,2.9,56,44,32,30.04,29.98,11,2,13,0.00
2013-3-4,39.0,26.6,14.7,11.2,8.0,4.4,66,47,31,30.13,30.04,8,1,8,0.00
2013-3-5,34.2,27.9,21.9,16.5,14.0,10.2,71,56,45,30.10,29.80,13,4,13,0.00
2013-3-6,41.7,33.8,26.8,21.0,18.2,14.3,69,53,40,30.19,29.80,11,1,13,0.00
2013-3-7,40.5,34.3,27.3,25.3,18.5,9.5,70,53,39,30.36,30.19,11,2,11,0.00
2013-3-8,47.7,33.0,22.3,18.8,14.3,9.0,67,47,30,30.48,30.36,6,0,6,0.00
2013-3-9,46.0,34.5,24.8,26.9,20.4,14.8,79,57,37,30.42,30.04,9,2,9,0.00
2013-3-10,67.1,51.3,34.3,32.9,27.3,23.6,76,43,25,30.04,29.83,12,3,13,0.00
2013-3-11,57.9,50.8,37.2,48.7,35.2,24.7,90,56,31,29.86,29.51,17,4,17,0.16
2013-3-12,37.4,34.6,29.8,29.2,22.8,15.4,76,62,44,29.95,29.74,10,0,10,0.00
2013-3-13,35.4,30.3,26.2,25.1,13.4,5.8,80,51,32,30.19,29.89,13,2,15,0.00
2013-3-14,45.3,32.4,22.1,14.8,10.4,6.5,57,41,24,30.24,30.10,10,1,12,0.00
2013-3-15,47.3,36.7,30.0,30.1,23.0,12.8,82,58,38,30.10,29.86,8,0,8,0.04
2013-3-16,35.1,31.7,29.1,31.7,23.5,15.7,95,73,54,30.04,29.74,8,0,8,0.00
2013-3-17,35.1,28.6,20.3,17.4,10.0,5.0,64,46,29,30.24,30.04,0,0,0,0.00
2013-3-18,36.0,31.5,24.4,36.0,25.2,11.1,100,79,54,30.16,29.57,11,1,11,0.12
2013-3-19,34.7,28.1,23.2,29.0,11.1,3.0,80,49,36,29.95,29.65,7,0,12,0.00
2013-3-20,31.8,25.7,18.1,8.9,5.2,-0.8,51,41,33,29.95,29.89,0,0,0,0.00
2013-3-21,33.8,24.8,15.8,14.3,9.1,2.3,65,51,37,29.95,29.86,10,1,13,0.00
2013-3-22,45.3,32.8,26.1,15.4,11.5,8.3,52,42,29,30.04,29.92,11,1,12,0.00
2013-3-23,46.4,31.9,21.6,23.8,14.3,12.1,79,50,30,30.10,30.01,9,1,11,0.00
2013-3-24,37.4,31.0,24.4,19.4,15.3,9.1,72,53,35,30.04,29.62,13,3,14,0.00
2013-3-25,39.4,34.4,30.9,25.1,18.1,13.9,68,52,40,29.89,29.54,11,3,11,0.00
2013-3-26,48.7,38.2,33.1,22.1,19.3,15.2,58,47,30,30.13,29.89,13,4,15,0.00
2013-3-27,50.0,39.2,29.3,23.7,18.1,13.8,70,45,26,30.22,30.10,15,2,15,0.00
2013-3-28,55.0,41.2,27.7,20.6,16.3,12.4,57,38,25,30.27,30.22,13,2,13,0.00
2013-3-29,58.3,41.4,25.9,19.7,14.5,7.0,65,36,21,30.27,30.22,10,1,11,0.00
2013-3-30,60.1,43.3,25.9,20.3,16.5,10.3,66,37,21,30.22,29.98,9,1,9,0.00
2013-3-31,62.2,48.0,36.7,38.6,24.9,18.3,71,42,23,29.98,29.71,14,1,14,0.00
2013-4-1,45.3,36.1,25.2,21.9,9.0,-0.0,51,33,22,30.13,29.74,20,4,20,0.00
2013-4-2,45.5,31.8,20.3,11.5,5.8,1.1,57,35,22,30.24,30.10,12,2,15,0.00
2013-4-3,47.5,33.0,20.8,11.8,6.6,2.4,52,34,21,30.45,30.24,13,2,17,0.00
2013-4-4,60.4,39.3,20.3,17.2,9.0,1.9,54,31,18,30.39,29.98,8,1,9,0.00
2013-4-5,55.9,44.1,32.2,22.8,14.7,9.1,53,32,18,30.24,29.95,14,2,14,0.00
2013-4-6,55.0,40.8,29.3,22.5,16.4,10.7,55,38,22,30.27,29.83,12,2,12,0.00
2013-4-7,62.6,55.8,42.3,35.2,26.1,16.5,44,32,21,30.07,29.68,16,3,19,0.00
2013-4-8,70.0,49.1,36.5,50.3,32.6,20.8,82,54,37,30.07,29.74,11,2,13,0.08
2013-4-9,57.2,48.1,39.2,41.9,35.7,32.7,90,64,43,30.10,29.92,8,1,11,0.00
2013-4-10,49.3,45.1,42.1,45.5,41.8,38.8,98,89,72,30.01,29.89,10,2,10,0.47
2013-4-11,42.1,39.2,37.0,41.6,36.7,32.0,100,91,79,29.98,29.62,16,5,16,0.87
2013-4-12,43.0,39.7,37.4,41.3,32.7,22.0,100,78,49,29.80,29.54,9,1,14,0.00
2013-4-13,43.3,39.6,37.2,33.7,23.0,16.2,77,52,36,30.01,29.80,14,1,14,0.00
2013-4-14,50.2,40.8,33.3,29.0,23.2,15.6,73,51,32,30.16,29.98,11,2,12,0.00
2013-4-15,70.9,56.2,36.1,41.2,35.9,27.2,83,50,29,30.01,29.92,11,3,14,0.00
2013-4-16,63.9,56.3,49.8,47.3,42.6,39.0,90,62,42,30.10,29.92,10,2,14,0.00
2013-4-24,43.0,38.8,35.1,34.6,26.7,18.9,87,63,42,30.19,29.98,11,1,13,0.00
2013-4-25,53.4,41.8,32.9,35.6,22.8,16.5,71,48,28,30.39,30.16,12,1,14,0.00
2013-4-26,61.2,45.9,29.5,32.7,23.4,17.1,71,44,23,30.51,30.39,8,1,10,0.00
2013-4-27,69.4,53.3,35.8,43.9,29.0,22.5,92,46,22,30.42,30.19,9,1,10,0.00
2013-4-28,55.2,51.9,48.6,53.5,43.6,25.8,96,76,40,30.19,29.92,6,0,7,0.00
2013-4-29,70.5,59.9,52.7,56.7,48.5,40.3,100,71,35,30.04,29.92,6,0,8,0.00
2013-4-30,72.5,62.6,53.8,50.0,44.5,39.6,85,54,35,30.19,30.04,14,2,14,0.00
2013-5-1,81.5,64.5,49.3,56.6,44.6,37.8,93,54,22,30.36,30.16,9,2,10,0.00
2013-5-2,78.3,64.7,53.2,43.7,38.1,30.9,67,40,23,30.33,30.24,11,2,13,0.00
2013-5-3,76.5,64.5,54.1,45.3,35.7,23.6,62,37,17,30.24,30.19,15,2,15,0.00
2013-5-4,69.4,61.8,55.2,39.5,31.5,25.1,53,33,22,30.22,30.19,13,3,15,0.00
2013-5-5,71.6,61.3,53.8,36.7,30.9,23.6,50,34,18,30.22,30.16,11,2,12,0.00
2013-5-6,70.5,60.6,48.7,35.2,31.9,29.1,51,35,25,30.19,30.13,10,2,10,0.00
2013-5-7,73.9,61.8,50.4,43.0,36.0,28.4,54,39,25,30.19,30.13,10,2,11,0.00
2013-5-8,79.0,65.4,53.1,45.9,39.2,32.9,68,42,22,30.19,30.10,11,1,11,0.00
2013-5-9,80.6,67.1,51.1,55.5,41.8,32.2,92,46,22,30.16,30.07,7,0,7,0.00
2013-5-10,75.4,62.6,45.9,60.2,46.2,31.5,96,57,31,30.13,29.95,12,2,14,0.00
2013-5-11,60.8,48.7,38.3,40.2,33.0,23.1,71,56,31,30.10,29.95,22,2,22,0.00
2013-5-12,50.5,42.1,34.5,28.6,20.1,12.9,72,43,28,30.24,30.04,15,3,19,0.00
2013-5-13,57.4,44.4,28.4,23.4,16.4,11.8,66,35,21,30.36,30.24,11,2,14,0.00
2013-5-14,79.9,59.8,41.2,43.9,29.2,16.0,50,33,21,30.30,29.95,10,1,13,0.00
2013-5-15,85.3,74.2,60.1,49.3,37.3,25.8,62,29,14,30.04,29.83,15,2,17,0.00
2013-5-16,84.0,69.4,51.4,37.1,31.3,24.4,49,26,15,30.24,30.04,10,1,11,0.00
2013-5-17,73.4,61.6,49.8,33.9,28.9,23.2,44,30,21,30.39,30.24,13,2,13,0.00
2013-5-18,75.7,63.5,53.1,35.4,31.7,23.5,45,31,22,30.39,30.30,12,2,12,0.00
2013-5-19,85.8,69.1,52.3,51.5,42.7,33.4,62,40,22,30.30,30.19,8,1,8,0.00
2013-5-20,90.9,76.4,60.6,62.5,50.7,41.7,89,47,19,30.22,30.10,11,1,12,0.00
2013-5-21,87.6,78.5,70.7,56.4,47.0,39.2,57,35,19,30.16,30.04,10,1,13,0.00
2013-5-22,71.6,69.7,68.7,53.8,49.6,46.4,58,49,42,30.07,30.04,6,0,6,0.00
2013-5-25,52.9,52.2,51.8,29.4,27.4,23.5,41,38,32,30.66,30.42,0,0,0,0.00
2013-6-3,68.1,62.3,52.8,46.0,42.2,38.0,74,50,35,30.06,29.98,6,1,9,0.00
2013-6-4,69.7,59.6,47.3,52.0,47.3,40.0,93,66,46,30.18,30.06,8,2,12,0.00
2013-6-5,71.4,60.8,51.3,49.0,43.8,37.0,81,55,35,30.17,29.99,9,3,15,0.00
2013-6-6,69.4,60.0,54.2,53.0,48.2,42.0,76,65,55,29.99,29.84,8,2,14,0.00
2013-6-7,61.6,56.3,50.6,53.0,50.9,48.0,93,82,72,29.92,29.87,7,1,9,0.00
2013-6-8,71.7,63.2,56.1,55.0,53.5,51.0,90,72,53,30.07,29.91,7,1,10,0.00
2013-6-9,74.6,66.3,58.5,61.0,57.8,55.0,91,75,56,30.10,29.95,13,3,17,0.03
2013-6-10,76.6,67.8,61.3,67.0,61.2,49.8,97,82,39,29.94,29.73,6,1,9,1.19
2013-6-11,81.6,71.6,64.3,68.0,64.7,63.0,97,80,55,29.90,29.76,7,2,13,0.00
2013-6-12,79.0,71.1,63.2,71.0,65.7,62.0,96,83,67,29.92,29.63,9,1,11,0.01
2013-6-13,77.2,68.6,61.7,65.0,60.0,54.0,96,76,47,29.91,29.49,8,2,17,1.07
2013-6-14,77.1,66.9,58.7,61.0,56.9,52.0,93,72,43,30.06,29.91,7,2,12,0.00
2013-6-15,78.2,67.2,55.1,63.0,59.0,53.0,94,76,53,30.10,29.93,9,2,16,0.00
2013-6-16,82.1,72.2,64.1,67.0,63.7,58.0,95,76,54,29.93,29.80,9,3,18,0.31
2013-6-17,85.3,74.2,61.5,69.0,60.7,56.0,89,65,38,29.92,29.83,9,2,11,0.00
2013-6-18,72.6,65.5,58.1,60.0,55.2,43.0,93,71,47,30.06,29.87,10,3,16,0.02
2013-6-19,72.2,61.8,47.9,55.0,49.3,41.0,87,65,49,30.17,30.06,10,2,11,0.00
2013-6-20,81.0,67.4,51.6,58.0,53.8,50.0,95,64,37,30.22,30.15,8,2,11,0.00
2013-6-21,85.7,74.5,62.4,64.0,60.0,56.0,86,63,36,30.21,30.04,8,1,15,0.00
2013-6-22,88.8,76.8,69.0,73.0,65.9,58.0,91,69,60,30.09,29.98,8,3,22,0.83
2013-6-24,85.8,82.2,75.6,71.0,69.8,68.0,82,67,58,29.95,29.92,5,2,10,0.08
2013-6-25,86.2,73.9,66.9,75.0,69.0,65.0,95,85,68,30.01,29.80,9,3,16,0.59
2013-6-26,81.8,72.8,66.0,72.0,68.3,64.0,96,86,66,29.92,29.72,7,2,14,0.27
2013-6-27,81.2,72.1,66.3,72.0,68.8,65.0,97,90,70,29.76,29.63,6,1,16,0.68
2013-6-28,77.7,66.9,62.8,69.0,64.4,60.0,98,92,69,29.63,29.51,7,1,15,0.92
2013-6-29,70.9,65.8,60.5,67.0,63.3,60.0,98,91,82,29.73,29.54,4,1,10,0.10
2013-6-30,76.6,68.0,60.9,64.0,60.5,58.0,95,78,55,29.92,29.72,11,2,17,0.01
2013-7-1,66.1,62.3,58.9,60.0,56.3,50.0,94,81,61,30.04,29.92,10,3,16,0.83
2013-7-2,72.7,65.2,59.6,65.0,61.0,57.0,93,86,77,30.07,30.00,7,3,12,0.02
2013-7-3,82.1,72.1,62.9,70.0,65.8,61.0,95,81,59,30.10,30.02,9,2,11,0.00
2013-7-4,79.5,73.0,68.3,69.0,67.3,65.0,95,83,64,30.13,30.07,5,1,10,0.00
2013-7-5,79.3,72.9,68.4,70.0,68.3,67.0,97,86,67,30.11,30.05,5,1,9,0.13
2013-7-6,81.8,72.5,68.4,72.0,69.2,67.0,97,90,73,30.11,29.99,6,1,10,0.57
2013-7-7,79.8,72.6,67.9,71.0,68.4,66.0,97,87,71,30.04,29.96,9,3,12,0.05
2013-7-8,81.7,72.6,67.2,76.0,69.7,66.0,96,90,78,30.04,29.97,6,2,14,0.53
2013-7-9,86.4,74.6,70.4,78.0,71.9,68.0,98,92,70,29.99,29.88,13,2,25,0.63
2013-7-10,84.5,75.7,66.0,78.0,71.4,62.0,97,87,66,29.93,29.77,13,3,18,0.14
2013-7-11,77.9,69.1,62.5,63.0,59.1,55.0,92,72,48,30.06,29.93,7,2,13,0.00
2013-7-12,79.3,68.0,56.7,65.0,60.5,55.0,96,79,55,30.15,30.05,9,2,11,0.00
2013-7-13,80.3,71.8,61.6,69.0,64.6,60.0,96,79,55,30.20,30.13,9,3,12,0.00
2013-7-14,84.8,76.0,65.4,74.0,69.2,64.0,95,80,62,30.24,30.19,7,2,12,0.00
2013-7-15,90.0,79.9,70.7,78.0,73.9,70.0,97,83,61,30.28,30.20,6,1,13,0.00
2013-7-16,88.7,80.5,75.2,80.0,76.2,74.0,96,87,67,30.30,30.22,4,1,9,0.40
2013-7-17,91.1,82.1,73.0,79.0,75.1,71.0,95,80,61,30.28,30.14,5,1,9,0.00
2013-7-18,91.5,82.3,73.0,81.0,75.2,71.0,96,80,58,30.16,29.95,6,2,12,0.07
2013-7-19,91.3,83.2,74.8,77.0,74.2,71.0,92,75,57,29.96,29.72,10,4,20,0.12
2013-7-20,85.0,76.3,68.9,75.0,69.8,64.0,97,81,53,29.91,29.70,12,2,20,0.88
2013-7-21,82.7,72.7,64.1,69.0,64.5,60.0,94,77,54,29.99,29.89,6,2,9,0.00
2013-7-22,79.7,72.6,68.5,71.0,68.0,66.0,95,86,66,29.95,29.75,5,1,8,0.09
2013-7-23,83.8,71.1,60.5,72.0,66.7,55.0,96,86,59,29.87,29.66,9,2,17,0.58
2013-7-24,71.9,63.1,54.4,56.0,52.9,49.0,90,71,51,30.04,29.88,8,2,14,0.01
2013-7-25,76.2,64.1,51.4,61.0,55.2,50.0,97,75,48,30.12,30.05,6,1,9,0.00
2013-7-26,77.7,67.2,55.5,63.0,58.8,54.0,96,76,53,30.11,29.90,7,1,10,0.00
2013-7-27,73.3,66.7,58.4,66.0,62.5,54.0,93,86,75,29.90,29.72,8,3,14,0.15
2013-7-28,65.4,59.2,51.8,55.0,52.6,50.0,95,79,64,30.00,29.85,9,3,17,0.01
2013-7-29,70.8,61.3,55.2,60.0,55.0,51.0,94,80,62,30.19,30.00,7,2,13,0.00
2013-7-30,77.3,64.8,52.3,64.0,58.0,51.0,97,80,52,30.25,30.13,5,1,8,0.00
2013-7-31,75.9,69.7,65.6,68.0,64.8,62.0,96,85,70,30.13,29.89,5,2,11,0.15
2013-8-1,78.5,67.9,60.9,67.0,62.9,57.0,97,85,53,29.93,29.87,7,1,12,0.01
2013-8-2,71.5,64.3,56.3,66.0,60.1,54.0,96,86,75,29.95,29.85,12,2,15,0.01
2013-8-3,78.2,69.7,60.4,65.0,60.2,54.0,97,75,43,30.03,29.91,8,1,13,0.00
2013-8-4,73.5,64.7,54.9,58.0,55.5,53.0,95,74,53,30.16,30.04,5,1,13,0.00
2013-8-5,71.5,63.1,52.3,61.0,55.9,51.0,96,78,55,30.12,29.97,6,1,8,0.00
2013-8-6,77.8,69.8,63.4,67.0,63.2,60.0,92,80,65,29.97,29.89,7,2,12,0.01
2013-8-7,82.4,72.3,64.4,73.0,68.2,63.0,96,87,67,29.95,29.82,7,2,12,0.26
2013-8-8,74.7,70.2,66.3,71.0,66.3,63.0,97,87,76,30.00,29.89,6,2,11,0.00
2013-8-9,80.3,70.0,60.5,65.0,60.1,55.0,91,72,49,30.01,29.94,7,1,9,0.00
2013-8-10,76.1,68.3,61.7,65.0,62.4,60.0,96,82,64,30.13,30.01,6,1,11,0.00
2013-8-11,79.8,68.1,56.0,64.0,60.3,55.0,97,78,49,30.13,30.03,6,1,8,0.00
2013-8-12,74.6,67.2,63.6,69.0,64.2,61.0,97,90,81,30.06,29.84,4,1,10,1.73
2013-8-13,67.6,62.5,55.0,65.0,55.8,49.0,97,80,55,30.06,29.82,9,2,16,0.03
2013-8-14,71.2,58.5,48.6,57.0,50.9,46.0,94,77,49,30.17,30.06,7,1,12,0.00
2013-8-15,74.3,61.3,49.4,59.0,52.6,48.0,97,76,43,30.19,30.10,5,1,9,0.00
2013-8-16,77.0,65.1,53.9,60.0,55.6,52.0,96,74,44,30.20,30.13,3,1,8,0.00
2013-8-17,77.0,65.6,53.2,62.0,57.3,52.0,97,77,50,30.26,30.19,6,1,12,0.00
2013-8-18,79.0,67.8,57.1,67.0,60.0,56.0,98,79,51,30.21,30.11,8,2,11,0.00
2013-8-19,82.4,69.2,56.4,67.0,61.1,55.0,97,78,49,30.12,30.03,4,1,7,0.00
2013-8-20,84.1,71.9,60.5,68.0,64.5,60.0,97,80,54,30.15,30.07,9,1,11,0.00
2013-8-21,85.3,75.1,64.5,71.0,66.8,62.0,93,76,54,30.14,29.98,9,2,12,0.00
2013-8-22,80.8,73.3,68.3,71.0,68.4,67.0,96,85,68,30.04,29.96,5,2,9,0.17
2013-8-23,80.5,71.0,60.6,68.0,59.7,52.0,97,71,38,30.19,30.04,8,2,11,0.01
2013-8-24,79.7,68.2,55.7,68.0,59.0,55.0,97,75,43,30.31,30.19,11,1,11,0.00
2013-8-25,85.6,71.4,56.0,69.0,61.9,55.0,97,75,46,30.30,30.16,7,2,12,0.00
2013-8-26,86.6,76.4,65.9,72.0,67.2,62.0,88,74,58,30.17,29.97,12,3,19,0.00
2013-8-27,83.9,76.3,71.0,76.0,72.6,69.0,96,88,78,29.99,29.83,11,2,14,0.39
2013-8-28,82.8,76.5,70.3,75.0,72.8,69.0,96,88,73,29.98,29.77,11,2,17,0.22
2013-8-29,84.4,74.0,65.6,74.0,68.9,65.0,98,85,64,30.07,29.98,4,1,9,0.00
2013-8-30,86.8,75.2,63.3,73.0,68.0,63.0,98,80,56,30.00,29.75,11,2,17,0.00
2013-8-31,83.0,74.1,68.5,73.0,69.8,67.0,98,87,63,29.82,29.72,7,2,26,1.47
2013-9-1,82.1,74.1,68.6,73.0,69.2,66.0,93,85,69,29.83,29.71,6,2,10,0.00
2013-9-2,77.3,70.5,61.3,70.0,63.8,53.0,96,80,59,29.91,29.71,12,2,13,0.00
2013-9-3,75.0,63.7,58.3,60.0,55.4,51.0,92,75,55,30.03,29.91,7,1,14,0.00
2013-9-4,80.6,66.7,54.2,64.0,58.4,53.0,97,77,49,30.10,30.01,8,2,15,0.00
2013-9-5,71.1,62.8,55.6,60.0,53.0,45.0,95,73,44,30.26,30.07,7,2,13,0.00
2013-9-6,74.4,61.1,47.7,58.0,51.8,47.0,97,74,45,30.28,30.08,5,1,8,0.00
2013-9-7,80.9,67.0,53.7,69.0,61.3,51.0,96,83,64,30.08,29.89,9,1,12,0.00
2013-9-8,73.2,67.9,58.4,67.0,61.1,53.0,95,80,57,30.06,29.92,10,2,16,0.00
2013-9-9,79.9,64.7,55.6,73.0,62.1,53.0,97,91,76,30.06,29.91,5,1,8,0.55
2013-9-10,94.1,81.5,68.7,75.0,71.3,66.0,97,73,47,30.00,29.90,12,2,14,0.00
2013-9-11,92.2,79.0,69.3,76.0,69.9,65.0,96,75,47,30.03,29.89,8,2,12,0.69
2013-9-12,79.1,69.7,57.8,69.0,62.9,50.0,97,81,50,29.95,29.83,10,2,21,0.00
2013-9-13,60.7,54.1,44.2,51.0,46.5,42.0,94,76,54,30.15,29.96,7,2,22,0.00
2013-9-14,69.3,53.5,39.8,51.0,43.3,37.0,97,73,31,30.22,30.11,6,1,9,0.00
2013-9-15,66.2,56.5,47.5,57.0,50.9,45.0,96,83,59,30.14,30.05,5,1,10,0.08
2013-9-16,63.5,56.0,46.5,55.0,51.1,45.0,98,85,58,30.37,30.13,6,1,11,0.00
2013-9-17,65.1,52.6,39.7,53.0,45.9,39.0,97,80,52,30.41,30.23,8,2,14,0.00
2013-9-18,74.1,59.0,46.9,60.0,53.6,46.0,97,84,54,30.23,30.05,9,1,9,0.00
2013-9-19,78.9,67.4,56.9,70.0,63.8,56.0,98,89,68,30.05,29.93,6,1,10,0.00
2013-9-20,82.6,72.1,68.0,71.0,68.2,66.0,96,88,67,29.93,29.73,9,3,16,0.18
2013-9-21,68.7,62.5,54.1,66.0,56.7,49.0,97,82,53,29.87,29.68,9,2,16,0.10
2013-9-22,60.9,53.9,48.6,51.0,44.8,42.0,87,72,55,30.09,29.87,8,2,14,0.00
2013-9-23,62.5,52.2,45.7,48.0,45.3,43.0,95,79,53,30.20,30.09,7,1,10,0.00
2013-9-24,65.2,54.4,48.1,53.0,49.7,47.0,96,85,63,30.15,30.00,11,1,13,0.00
2013-9-25,70.0,57.0,47.9,59.0,52.8,47.0,97,86,62,30.02,29.94,6,1,12,0.00
2013-9-26,74.7,58.2,45.1,58.0,49.8,44.0,98,78,38,30.14,29.99,7,1,11,0.01
2013-9-27,72.2,58.6,46.6,61.0,53.1,46.0,98,84,58,30.24,30.14,10,1,14,0.00
2013-9-28,76.0,62.6,50.6,60.0,55.7,50.0,98,80,51,30.20,30.02,5,1,11,0.01
2013-9-29,64.2,61.9,59.0,62.0,57.9,54.0,97,87,74,30.03,29.96,7,1,10,0.07
2013-9-30,70.8,61.6,55.5,59.0,56.8,54.0,98,86,60,30.02,29.93,8,1,12,0.00
2013-10-1,70.3,60.9,52.4,63.0,58.1,52.0,98,91,75,30.04,29.95,11,2,16,0.01
2013-10-2,81.8,67.3,57.5,63.0,57.2,50.0,96,74,35,30.07,29.97,6,1,9,0.00
2013-10-3,77.4,65.8,56.6,70.0,62.7,54.0,97,90,75,30.05,29.93,7,1,13,0.11
2013-10-4,78.3,70.4,66.6,70.0,66.2,64.0,93,86,69,30.02,29.95,7,2,11,0.00
2013-10-5,74.1,69.1,64.9,69.0,66.4,64.0,97,91,82,30.02,29.86,6,2,9,0.01
2013-10-6,70.9,65.3,55.8,68.0,63.5,54.0,97,93,85,29.86,29.63,9,3,14,0.25
2013-10-7,60.5,52.3,44.5,54.0,46.9,42.0,95,82,66,30.13,29.70,14,3,20,0.01
2013-10-8,66.8,53.5,41.9,50.0,45.4,41.0,97,78,42,30.30,30.14,7,1,9,0.00
2013-10-9,67.7,54.2,41.6,56.0,46.7,41.0,98,79,44,30.32,30.23,9,2,14,0.00
2013-10-10,70.0,54.2,40.9,54.0,45.2,37.0,98,77,31,30.24,30.14,10,1,11,0.01
2013-10-11,71.2,55.6,41.9,58.0,48.9,41.0,98,81,40,30.16,30.08,8,1,10,0.00
2013-10-12,75.3,60.6,47.8,61.0,53.2,47.0,98,80,39,30.11,30.05,7,1,12,0.01
2013-10-13,69.9,59.5,47.0,59.0,48.5,41.0,98,72,35,30.34,30.08,7,1,12,0.00
2013-10-14,63.6,50.6,40.7,49.0,44.6,40.0,98,82,52,30.41,30.28,8,1,14,0.00
2013-10-15,62.4,53.8,41.1,61.0,51.6,40.0,98,92,82,30.28,29.86,6,2,15,0.11
2013-10-16,62.6,58.0,52.3,61.0,51.6,46.0,96,80,58,29.93,29.82,12,3,18,0.00
2013-10-17,52.2,49.2,44.0,49.0,46.4,42.0,95,90,81,29.92,29.79,8,2,16,0.10
2013-10-18,63.8,51.2,40.9,48.0,43.6,40.0,95,78,45,29.94,29.86,9,2,18,0.00
2013-10-19,48.3,43.7,39.7,44.0,40.6,37.0,96,89,73,29.93,29.78,11,2,18,0.18
2013-10-20,60.5,49.7,40.7,44.0,40.4,37.0,88,72,48,29.94,29.87,12,3,20,0.00
2013-10-21,55.3,50.9,40.6,49.0,44.2,36.0,92,78,65,29.89,29.83,16,3,16,0.05
2013-10-22,50.3,41.4,32.9,36.0,32.6,30.0,88,72,51,29.97,29.87,10,3,16,0.00
2013-10-23,48.2,38.8,31.2,37.0,33.1,28.0,96,81,49,29.97,29.84,6,1,15,0.02
2013-10-24,47.0,38.0,31.7,37.0,32.0,29.0,95,81,51,30.21,29.96,8,2,13,0.00
2013-10-25,47.6,38.0,29.7,38.0,31.2,29.0,96,78,56,30.36,30.16,9,2,13,0.01
2013-10-26,50.0,42.4,36.5,39.0,32.4,29.0,93,69,60,30.16,29.83,16,5,25,0.02
2013-10-27,53.5,41.9,31.4,36.0,33.0,29.0,94,73,46,30.10,30.01,8,2,15,0.00
2013-10-28,53.4,42.3,31.6,43.0,35.6,30.0,92,78,66,30.40,30.06,9,2,12,0.00
2013-10-29,52.4,43.3,34.4,42.0,36.6,31.0,89,78,65,30.45,30.26,7,2,10,0.00
2013-10-30,61.8,46.9,32.1,52.0,41.5,31.0,97,83,52,30.25,29.97,7,1,14,0.14
2013-10-31,62.1,59.9,54.6,61.0,58.4,53.0,98,95,90,29.98,29.17,9,4,21,1.68
2013-11-1,59.9,49.4,45.9,59.0,45.0,41.0,95,85,76,29.69,29.16,15,4,25,0.05
2013-11-2,48.7,45.5,40.6,45.0,42.1,35.0,96,88,73,30.11,29.67,6,2,13,0.09
2013-11-3,45.9,38.6,33.3,37.0,33.5,32.0,94,82,66,30.46,30.11,5,2,13,0.00
2013-11-4,46.6,41.7,35.0,37.0,33.3,30.0,90,73,53,30.49,30.33,11,3,17,0.00
2013-11-5,54.8,50.3,44.1,49.0,44.4,38.0,90,80,73,30.39,30.19,8,2,11,0.00
2013-11-6,57.1,53.4,44.1,53.0,47.2,40.0,92,80,59,30.19,29.83,13,4,20,0.17
2013-11-7,45.7,41.4,35.6,40.0,33.2,28.0,90,74,56,30.16,30.00,9,2,17,0.00
2013-11-8,45.3,38.1,33.5,34.0,30.4,26.0,89,75,49,30.31,30.16,9,2,12,0.00
2013-11-9,57.1,48.4,37.1,43.0,36.8,31.0,80,65,57,30.21,29.84,16,5,25,0.00
2013-11-10,49.3,43.3,35.5,40.0,32.0,28.0,84,65,52,30.30,29.93,13,2,20,0.00
2013-11-11,45.9,37.7,28.7,40.0,32.9,23.0,94,83,68,30.33,30.05,8,3,18,0.14
2013-11-12,35.9,28.7,22.9,24.0,21.3,18.0,87,74,57,30.59,30.34,9,2,17,0.02
2013-11-13,38.8,29.7,21.7,26.0,21.6,18.0,90,73,50,30.59,30.22,13,4,26,0.00
2013-11-14,51.5,38.9,29.8,28.0,24.4,21.0,75,58,36,30.23,30.04,17,5,22,0.00
2013-11-15,50.8,43.7,38.3,33.0,29.0,25.0,66,57,47,30.10,30.03,11,2,17,0.00
2013-11-16,58.4,47.9,33.7,53.0,43.0,31.0,94,83,66,30.12,29.83,13,4,22,0.00
2013-11-17,65.2,59.1,47.9,59.0,55.0,41.0,93,86,72,29.83,29.28,19,7,31,0.59
2013-11-18,47.8,41.0,35.1,41.0,33.1,26.0,85,74,65,30.16,29.55,15,5,26,0.00
2013-11-19,42.2,34.9,27.3,27.0,25.0,23.0,90,68,47,30.43,30.17,12,2,13,0.00
2013-11-20,43.6,34.6,24.7,33.0,27.7,23.0,95,77,53,30.46,30.26,13,3,17,0.00
2013-11-21,45.9,42.9,38.4,44.0,39.1,30.0,97,87,65,30.31,30.19,7,2,15,0.42
2013-11-22,45.8,40.3,29.0,45.0,38.0,27.0,98,91,78,30.39,30.15,14,2,18,0.07
2013-11-23,31.9,25.8,18.6,27.0,18.9,10.0,93,76,52,30.56,30.31,12,3,19,0.00
2013-11-24,27.9,20.4,14.7,17.0,12.5,10.0,86,73,52,30.65,30.49,7,2,13,0.00
2013-11-25,30.8,25.9,19.4,25.0,18.2,14.0,83,73,59,30.49,30.14,13,4,20,0.00
2013-11-26,35.2,31.9,29.6,29.0,26.9,24.0,87,81,75,30.16,29.96,9,2,12,0.00
2013-11-27,29.9,25.0,18.9,25.0,16.5,13.0,84,71,56,30.24,29.94,11,3,24,0.00
2013-11-28,28.6,24.1,18.8,21.0,17.1,13.0,87,75,61,30.46,30.25,7,2,15,0.00
2013-11-29,34.7,25.8,18.4,23.0,19.9,16.0,94,80,53,30.70,30.46,4,1,10,0.00
2013-11-30,46.3,35.4,27.9,29.0,25.8,22.0,80,69,51,30.59,30.13,10,3,12,0.00
2013-12-1,46.9,37.0,31.0,36.0,30.5,26.0,92,77,65,30.13,30.00,6,2,12,0.00
2013-12-2,40.4,31.2,25.7,32.0,26.9,24.0,96,85,59,30.01,29.91,7,1,10,0.00
2013-12-3,39.3,35.6,27.0,37.0,32.4,23.0,93,88,80,29.93,29.85,8,3,12,0.04
2013-12-4,60.1,46.9,36.3,54.0,44.2,35.0,96,90,81,29.91,29.65,9,3,19,0.00
2013-12-5,59.6,43.6,31.4,55.0,37.2,24.0,89,78,68,30.16,29.64,11,4,23,0.00
2013-12-6,31.3,27.9,21.6,24.0,20.3,16.0,79,73,67,30.43,30.14,6,2,9,0.00
2013-12-7,27.8,20.7,14.8,16.0,12.8,10.0,87,72,54,30.66,30.43,9,1,13,0.00
2013-12-8,29.0,20.8,13.0,28.0,17.3,10.0,95,86,76,30.64,30.03,11,4,16,0.00
2013-12-9,29.6,26.1,19.7,28.0,22.0,13.0,95,84,75,30.16,29.94,18,6,21,0.00
2013-12-10,23.5,18.3,10.7,14.0,10.5,5.0,83,72,54,30.25,30.02,13,4,24,0.00
2013-12-11,25.4,17.7,8.5,20.0,12.4,4.0,88,80,74,30.51,30.25,12,3,15,0.00
2013-12-12,16.5,12.0,3.1,11.0,5.1,0.0,90,74,57,30.52,30.26,18,4,19,0.00
2013-12-13,28.4,22.1,16.8,21.0,15.9,11.0,84,77,69,30.30,30.21,11,3,14,0.00
2013-12-14,23.4,20.9,19.8,21.0,18.9,18.0,93,92,82,30.29,29.84,15,6,19,0.00
2013-12-15,24.8,19.5,13.8,23.0,16.9,10.0,93,89,85,30.09,29.85,10,4,22,0.00
2013-12-16,20.4,11.7,2.1,15.0,8.4,-1.0,92,86,79,30.24,30.05,10,1,11,0.06
2013-12-17,25.5,20.7,14.1,22.0,18.3,12.0,93,90,86,30.06,29.95,10,3,19,0.01
2013-12-18,27.5,23.1,15.7,21.0,18.2,13.0,94,82,67,30.18,29.96,9,3,17,0.00
2013-12-19,41.3,35.8,26.9,35.0,29.6,19.0,90,78,68,30.02,29.91,10,2,14,0.05
2013-12-20,41.7,38.6,34.7,41.0,37.5,33.0,97,95,90,29.92,29.74,5,1,11,0.27
2013-12-21,37.2,34.4,32.7,37.0,33.8,32.0,98,97,96,29.88,29.66,10,2,17,0.94
2013-12-22,39.4,35.4,32.6,37.0,33.8,32.0,98,93,86,30.00,29.55,16,4,22,0.25
2013-12-23,34.2,29.6,19.9,32.0,24.9,14.0,94,83,68,30.34,30.00,9,2,16,0.00
2013-12-24,21.8,16.0,11.7,14.0,10.5,8.0,91,79,65,30.59,30.34,6,2,12,0.00
2013-12-25,25.5,20.5,11.2,23.0,16.9,9.0,92,86,74,30.56,30.17,9,3,16,0.00
2013-12-26,27.9,26.4,24.8,26.0,22.1,19.0,94,84,73,30.33,30.09,11,3,17,0.00
2013-12-27,40.3,34.5,28.2,33.0,29.2,23.0,84,81,73,30.35,30.13,16,3,18,0.05
2013-12-28,47.2,40.1,34.7,37.0,33.5,31.0,86,78,68,30.16,29.93,11,4,20,0.00
2013-12-29,44.8,36.0,25.6,34.0,29.6,20.0,92,77,66,30.02,29.71,12,3,18,0.00
2013-12-30,25.3,20.6,17.4,20.0,12.2,7.0,82,70,62,30.30,30.03,9,2,12,0.00
2013-12-31,21.7,18.0,15.9,16.0,12.3,9.0,89,79,69,30.38,30.12,11,4,21,0.00
2014-1-1,16.9,14.9,13.1,14.0,12.1,10.0,91,88,84,30.41,30.23,11,3,17,0.00
2014-1-2,15.6,12.4,4.1,14.0,9.6,-1.0,91,88,81,30.31,30.09,14,6,20,0.00